Showing default

NUSAT-38 (MARIA AGNESI), 56202

Orbit data source: Space-Track

NUSAT-38 (MARIA AGNESI), 56202 is a payload satellite owned by URUGUS S.A. (AR) in SSO that was launched on Sat, 15 Apr 2023 UTC via an FALCON 9 launch vehicle from the Air Force Western Test Range (AFWTR). Payload-class satellites include a variety of spacecraft equipped with specific instruments for various scientific and technological missions. These include communications satellites like Starlink; space stations such as the ISS; scientific satellites like the Hubble; Earth observation satellites from companies like Planet Labs, Umbra, and HawkEye 360; GPS; miniature CubeSats for education and research; and military/defense satellites.

Loading next visibility...
Identifier
56202, 2023-054AA
Orbit
SSO
Country
Flag of ARAR / ARGN
Related business
Manufacturer
URUGUS S.A.
Mission
Operational Commercial Imaging
Bus & Motor
NEWSAT V, Unknown motor
Mass
41.5 kg wet, 38.5 kg dry
Launch date (UTC)
2023-04-15 (3 years ago)
Launch vehicle
FALCON 9
Launch site
Air Force Western Test Range (AFWTR)
Object type
Payload
Rocket body
Debris
Shape & HBR
Box, 1.0 m
Radar Cross Section
0.542 m², Medium (>0.1 m² and < 1m²)

Expand to show TLE details & history
Last TLE update: 10 hours ago

TLE from 10 hours ago
0 NUSAT-38 (MARIA AGNESI)
1 56202U 23054AA  26133.19850939  .00019150  00000-0  37294-3 0  9992
2 56202  97.3089  43.1806 0012879 174.7027 185.4362 15.47508785173099
Epoch: 2026-05-13T04:45Z
TLE epoch observation values (Epoch: 2026-05-13T04:45:51.211Z)
Latitude
-0.00001°
Longitude
100.75525°
Altitude
435.87 km
Speed
7.645 km/s
True Right ascension
02h 52m 43s
True Declination
0° 00' 00"
Sunlit
Object was in daylight at epoch
Visualization orbit readout
Latitude
Unknown
Longitude
Unknown
Altitude
Unknown
Speed
Unknown
Apparent Right ascension
Unknown
Apparent Declination
Unknown
Sunlit
N/A
Visualization observer readout
Local Sidereal Time
23:16:20
Azimuth
Unknown
Elevation
Unknown
Doppler factor
Unknown
Orbital elements
Apogee altitude
429.698 km
Perigee altitude
412.185 km
Semi-major axis
6,799.079 km
Eccentricity
0.00129
Inclination
97.3089°
RAAN
43.1806°
Arg. of periapsis
174.7027°
True anomaly
185.42224°
Mean anomaly
185.4362°
Eccentric anomaly
185.42922°
Mean motion
3.8714 °/min
Orbital period
92.99 mins
BSTAR
0.00037294
Loading maneuver chart data...
Computing Atmospheric mass density...
Loading historical data...
Loading historical data...
Loading historical data...
Loading historical data...
Loading historical data...
Loading historical data...
Loading historical data...

Documentation

Showing up to 5 results
|